SDM5751 UNKL-UHWW

Flight info

Callsign SDM5751
Flight time 4h 36m
Altitude 35000
Route N0460F350 ATREG R497 RO B151 BRT G363 GU N992 TORMA A946 IVADA L168 HAB/K0818F340 B355 BG G714 DAGES
Aircraft B738/M-VGDW/C

Departure

Time 2026-04-23 15:20
Airport Krasnoyarsk International Airport (UNKL)

Arrival

Time 2026-04-23 19:57
Airport Vladivostok International Airport (UHWW)
Time Latitude Longitude Altitude Speed Heading
2026-04-23 15:07 56.17919 92.48613 950 ft 0 kts 21°
2026-04-23 15:12 56.17907 92.48604 971 ft 2 kts 21°
2026-04-23 15:12 56.17892 92.48593 944 ft 2 kts 21°
2026-04-23 15:12 56.17877 92.48582 948 ft 2 kts 21°
2026-04-23 15:12 56.17862 92.48571 948 ft 2 kts
2026-04-23 15:13 56.17846 92.48573 950 ft 2 kts 292°
2026-04-23 15:13 56.17845 92.48602 949 ft 2 kts 283°
2026-04-23 15:13 56.17844 92.48606 949 ft 0 kts 283°
2026-04-23 15:16 56.17847 92.48590 948 ft 6 kts 290°
2026-04-23 15:16 56.17859 92.48507 949 ft 8 kts 257°
2026-04-23 15:16 56.17821 92.48447 949 ft 8 kts 203°
2026-04-23 15:17 56.17770 92.48404 950 ft 8 kts 215°
2026-04-23 15:17 56.17760 92.48308 950 ft 10 kts 285°
2026-04-23 15:17 56.17798 92.48141 950 ft 21 kts 292°
2026-04-23 15:17 56.17867 92.47847 950 ft 28 kts 294°
2026-04-23 15:18 56.17942 92.47534 950 ft 26 kts 293°
2026-04-23 15:18 56.18011 92.47244 949 ft 24 kts 293°
2026-04-23 15:18 56.18075 92.46976 950 ft 23 kts 293°
2026-04-23 15:18 56.18118 92.46795 950 ft 11 kts 288°
2026-04-23 15:19 56.18074 92.46712 950 ft 10 kts 202°
2026-04-23 15:19 56.18009 92.46659 949 ft 10 kts 202°
2026-04-23 15:19 56.17944 92.46631 949 ft 10 kts 158°
2026-04-23 15:19 56.17902 92.46759 948 ft 18 kts 114°
2026-04-23 15:20 56.17838 92.47030 951 ft 57 kts 113°
2026-04-23 15:20 56.17473 92.48563 951 ft 138 kts 113°
2026-04-23 15:20 56.17049 92.50398 1123 ft 171 kts 111°
2026-04-23 15:20 56.16639 92.52378 1958 ft 164 kts 111°
2026-04-23 15:21 56.16090 92.54140 2732 ft 168 kts 140°
2026-04-23 15:21 56.15062 92.55373 2913 ft 186 kts 145°
2026-04-23 15:21 56.13957 92.56772 3031 ft 202 kts 145°
2026-04-23 15:21 56.12774 92.58277 3169 ft 218 kts 145°
2026-04-23 15:22 56.11485 92.59906 3418 ft 234 kts 146°
2026-04-23 15:22 56.10129 92.61610 3893 ft 243 kts 146°
2026-04-23 15:22 56.08724 92.63367 4386 ft 250 kts 147°
2026-04-23 15:22 56.07280 92.65169 4922 ft 256 kts 147°
2026-04-23 15:23 56.05794 92.67020 5446 ft 262 kts 147°
2026-04-23 15:23 56.04434 92.69222 6004 ft 269 kts 131°
2026-04-23 15:23 56.03297 92.71930 6575 ft 275 kts 128°
2026-04-23 15:23 56.02164 92.74720 7148 ft 278 kts 128°
2026-04-23 15:24 56.01018 92.77533 7764 ft 281 kts 128°
2026-04-23 15:24 55.99863 92.80350 8429 ft 283 kts 128°
2026-04-23 15:24 55.98688 92.83193 9045 ft 287 kts 128°
2026-04-23 15:24 55.97483 92.86090 9559 ft 296 kts 128°
2026-04-23 15:25 55.96240 92.89062 10132 ft 301 kts 128°
2026-04-23 15:25 55.94948 92.92141 10314 ft 321 kts 128°
2026-04-23 15:25 55.94042 92.94293 10434 ft 334 kts 128°
2026-04-23 15:25 55.92105 92.98886 10700 ft 357 kts 128°
2026-04-23 15:26 55.90596 93.02457 11149 ft 364 kts 128°
2026-04-23 15:26 55.89082 93.06039 11761 ft 368 kts 128°
2026-04-23 15:26 55.88038 93.08503 12188 ft 370 kts 128°
2026-04-23 15:26 55.86482 93.12173 12806 ft 374 kts 128°
2026-04-23 15:27 55.84905 93.15883 13415 ft 378 kts 128°
2026-04-23 15:27 55.83304 93.19644 14013 ft 383 kts 128°
2026-04-23 15:27 55.81689 93.23432 14580 ft 387 kts 129°
2026-04-23 15:27 55.80049 93.27274 15124 ft 392 kts 129°
2026-04-23 15:28 55.78394 93.31147 15683 ft 396 kts 129°
2026-04-23 15:28 55.76712 93.35073 16242 ft 401 kts 129°
2026-04-23 15:28 55.75014 93.39030 16796 ft 406 kts 129°
2026-04-23 15:28 55.73394 93.43185 17257 ft 414 kts 123°
2026-04-23 15:29 55.71935 93.47637 17790 ft 419 kts 120°
2026-04-23 15:29 55.70537 93.52198 18320 ft 424 kts 119°
2026-04-23 15:29 55.69140 93.56815 18801 ft 427 kts 120°
2026-04-23 15:29 55.67718 93.61471 19305 ft 430 kts 120°
2026-04-23 15:30 55.66272 93.66131 19780 ft 434 kts 120°
2026-04-23 15:30 55.64793 93.70830 20253 ft 438 kts 121°
2026-04-23 15:30 55.63296 93.75540 20703 ft 441 kts 121°
2026-04-23 15:30 55.61780 93.80278 21167 ft 445 kts 121°
2026-04-23 15:31 55.60243 93.85062 21629 ft 448 kts 121°
2026-04-23 15:31 55.58696 93.89862 22076 ft 451 kts 121°
2026-04-23 15:31 55.57131 93.94712 22513 ft 456 kts 121°
2026-04-23 15:31 55.55553 93.99591 22906 ft 460 kts 121°
2026-04-23 15:32 55.53961 94.04508 23325 ft 463 kts 121°
2026-04-23 15:32 55.52351 94.09471 23711 ft 466 kts 121°
2026-04-23 15:32 55.50733 94.14447 24050 ft 470 kts 121°
2026-04-23 15:32 55.49100 94.19459 24385 ft 473 kts 121°
2026-04-23 15:33 55.47453 94.24505 24714 ft 476 kts 121°
2026-04-23 15:33 55.45791 94.29587 25047 ft 479 kts 121°
2026-04-23 15:33 55.44121 94.34681 25341 ft 482 kts 121°
2026-04-23 15:33 55.42436 94.39810 25612 ft 487 kts 121°
2026-04-23 15:34 55.40735 94.44976 25931 ft 490 kts 120°
2026-04-23 15:34 55.39017 94.50186 26249 ft 493 kts 120°
2026-04-23 15:34 55.37292 94.55402 26537 ft 495 kts 120°
2026-04-23 15:34 55.35550 94.60661 26849 ft 498 kts 120°
2026-04-23 15:35 55.33802 94.65929 27147 ft 501 kts 120°
2026-04-23 15:35 55.32042 94.71221 27429 ft 504 kts 120°
2026-04-23 15:35 55.30264 94.76555 27714 ft 507 kts 120°
2026-04-23 15:35 55.28610 94.82013 27957 ft 509 kts 109°
2026-04-23 15:36 55.27835 94.88019 28191 ft 505 kts 90°
2026-04-23 15:36 55.27924 94.94131 28516 ft 497 kts 76°
2026-04-23 15:36 55.28812 94.99913 28781 ft 489 kts 64°
2026-04-23 15:36 55.29999 95.05525 29056 ft 490 kts 63°
2026-04-23 15:37 55.31221 95.11121 29290 ft 493 kts 63°
2026-04-23 15:37 55.32446 95.16752 29532 ft 495 kts 63°
2026-04-23 15:37 55.33659 95.22434 29874 ft 496 kts 63°
2026-04-23 15:37 55.34844 95.28102 30266 ft 494 kts 63°
2026-04-23 15:38 55.36009 95.33761 30621 ft 493 kts 63°
2026-04-23 15:38 55.37170 95.39442 30911 ft 493 kts 63°
2026-04-23 15:38 55.38324 95.45117 31159 ft 494 kts 62°
2026-04-23 15:38 55.39480 95.50817 31456 ft 494 kts 62°
2026-04-23 15:39 55.40627 95.56493 31852 ft 492 kts 62°
2026-04-23 15:39 55.41769 95.62160 32248 ft 489 kts 61°
2026-04-23 15:39 55.42901 95.67788 32538 ft 488 kts 61°
2026-04-23 15:39 55.44035 95.73424 32745 ft 490 kts 61°
2026-04-23 15:40 55.45175 95.79100 32964 ft 491 kts 60°
2026-04-23 15:40 55.46306 95.84763 33236 ft 490 kts 60°
2026-04-23 15:40 55.47431 95.90418 33540 ft 489 kts 60°
2026-04-23 15:40 55.48557 95.96087 33797 ft 489 kts 60°
2026-04-23 15:41 55.49679 96.01743 34017 ft 489 kts 60°
2026-04-23 15:41 55.50795 96.07401 34267 ft 488 kts 60°
2026-04-23 15:41 55.51890 96.12987 34579 ft 486 kts 60°
2026-04-23 15:41 55.52999 96.18678 34931 ft 483 kts 61°
2026-04-23 15:42 55.54079 96.24223 35001 ft 485 kts 61°
2026-04-23 15:42 55.56280 96.35555 35011 ft 484 kts 61°
2026-04-23 15:43 55.58441 96.46769 35035 ft 480 kts 61°
2026-04-23 15:43 55.60583 96.57935 35040 ft 478 kts 62°
2026-04-23 15:44 55.62709 96.69073 35040 ft 477 kts 62°
2026-04-23 15:44 55.64820 96.80194 35048 ft 478 kts 63°
2026-04-23 15:45 55.66922 96.91344 35049 ft 477 kts 63°
2026-04-23 15:45 55.69011 97.02492 35060 ft 476 kts 63°
2026-04-23 15:46 55.71088 97.13639 35071 ft 476 kts 63°
2026-04-23 15:46 55.73154 97.24788 35083 ft 477 kts 63°
2026-04-23 15:47 55.75217 97.35990 35094 ft 478 kts 63°
2026-04-23 15:47 55.77277 97.47245 35100 ft 479 kts 63°
2026-04-23 15:48 55.79329 97.58529 35091 ft 480 kts 63°
2026-04-23 15:48 55.81368 97.69812 35126 ft 480 kts 64°
2026-04-23 15:49 55.83403 97.81136 35113 ft 480 kts 64°
2026-04-23 15:49 55.85429 97.92476 35154 ft 481 kts 64°
2026-04-23 15:50 55.87408 98.03860 35125 ft 481 kts 64°
2026-04-23 15:50 55.89353 98.15228 35119 ft 480 kts 64°
2026-04-23 15:51 55.91292 98.26602 35121 ft 479 kts 64°
2026-04-23 15:51 55.93220 98.37962 35114 ft 478 kts 64°
2026-04-23 15:52 55.95135 98.49308 35148 ft 477 kts 64°
2026-04-23 15:52 55.97035 98.60634 35149 ft 477 kts 64°
2026-04-23 15:53 55.98924 98.71974 35157 ft 476 kts 64°
2026-04-23 15:53 56.00799 98.83302 35179 ft 475 kts 65°
2026-04-23 15:54 56.02663 98.94636 35169 ft 475 kts 65°
2026-04-23 15:54 56.04513 99.05961 35159 ft 475 kts 65°
2026-04-23 15:55 56.06356 99.17314 35180 ft 475 kts 65°
2026-04-23 15:55 56.08190 99.28682 35166 ft 475 kts 65°
2026-04-23 15:56 56.09835 99.40179 35158 ft 478 kts 69°
2026-04-23 15:56 56.11265 99.51797 35151 ft 478 kts 69°
2026-04-23 15:57 56.12712 99.63414 35145 ft 477 kts 69°
2026-04-23 15:57 56.14182 99.74999 35185 ft 476 kts 68°
2026-04-23 15:58 56.15649 99.86593 35162 ft 476 kts 68°
2026-04-23 15:58 56.17099 99.98174 35142 ft 476 kts 68°
2026-04-23 15:59 56.18545 100.09767 35149 ft 475 kts 68°
2026-04-23 15:59 56.19984 100.21356 35142 ft 475 kts 68°
2026-04-23 16:00 56.21409 100.32935 35148 ft 475 kts 69°
2026-04-23 16:00 56.22825 100.44533 35164 ft 475 kts 68°
2026-04-23 16:01 56.24220 100.56131 35157 ft 475 kts 69°
2026-04-23 16:01 56.25607 100.67763 35148 ft 476 kts 69°
2026-04-23 16:02 56.26986 100.79403 35149 ft 475 kts 69°
2026-04-23 16:02 56.28355 100.91050 35140 ft 476 kts 69°
2026-04-23 16:03 56.29725 101.02788 35139 ft 476 kts 69°
2026-04-23 16:03 56.31076 101.14440 35133 ft 476 kts 69°
2026-04-23 16:04 56.32409 101.26043 35135 ft 476 kts 69°
2026-04-23 16:04 56.33744 101.37750 35141 ft 477 kts 69°
2026-04-23 16:05 56.34851 101.47555 35129 ft 478 kts 69°
2026-04-23 16:05 56.36170 101.59318 35165 ft 479 kts 69°
2026-04-23 16:06 56.37268 101.71222 35116 ft 491 kts 80°
2026-04-23 16:06 56.37163 101.83626 35129 ft 496 kts 84°
2026-04-23 16:07 56.36916 101.96045 35136 ft 495 kts 84°
2026-04-23 16:07 56.36723 102.08439 35144 ft 493 kts 83°
2026-04-23 16:08 56.36556 102.20806 35192 ft 493 kts 83°
2026-04-23 16:08 56.36380 102.33157 35199 ft 493 kts 83°
2026-04-23 16:09 56.36188 102.45507 35190 ft 492 kts 83°
2026-04-23 16:09 56.35976 102.57839 35219 ft 491 kts 84°
2026-04-23 16:10 56.35737 102.70152 35222 ft 491 kts 84°
2026-04-23 16:10 56.35488 102.82433 35244 ft 491 kts 84°
2026-04-23 16:11 56.35228 102.94733 35245 ft 490 kts 84°
2026-04-23 16:11 56.34958 103.07017 35242 ft 490 kts 84°
2026-04-23 16:12 56.34676 103.19267 35242 ft 490 kts 84°
2026-04-23 16:12 56.34382 103.31534 35303 ft 490 kts 84°
2026-04-23 16:13 56.34078 103.43808 35247 ft 490 kts 85°
2026-04-23 16:13 56.33613 103.62186 35241 ft 489 kts 85°
2026-04-23 16:14 56.33300 103.74418 35243 ft 488 kts 85°
2026-04-23 16:14 56.32975 103.86641 35242 ft 488 kts 85°
2026-04-23 16:15 56.32636 103.98859 35271 ft 488 kts 85°
2026-04-23 16:15 56.32287 104.11057 35252 ft 487 kts 85°
2026-04-23 16:16 56.31917 104.23245 35255 ft 487 kts 86°
2026-04-23 16:16 56.31526 104.35408 35247 ft 485 kts 86°
2026-04-23 16:17 56.31126 104.47534 35250 ft 484 kts 86°
2026-04-23 16:17 56.30718 104.59628 35253 ft 485 kts 86°
2026-04-23 16:18 56.30298 104.71724 35260 ft 483 kts 86°
2026-04-23 16:18 56.29866 104.83797 35264 ft 483 kts 86°
2026-04-23 16:19 56.29424 104.95859 35257 ft 483 kts 87°
2026-04-23 16:19 56.28971 105.07898 35303 ft 483 kts 87°
2026-04-23 16:20 56.28505 105.19979 35266 ft 484 kts 87°
2026-04-23 16:20 56.28027 105.32060 35260 ft 484 kts 88°
2026-04-23 16:21 56.27538 105.44133 35271 ft 483 kts 88°
2026-04-23 16:21 56.27029 105.56260 35281 ft 483 kts 88°
2026-04-23 16:22 56.26511 105.68327 35287 ft 484 kts 88°
2026-04-23 16:22 56.25986 105.80323 35273 ft 484 kts 88°
2026-04-23 16:23 56.25446 105.92400 35269 ft 484 kts 88°
2026-04-23 16:23 56.24891 106.04524 35273 ft 484 kts 89°
2026-04-23 16:24 56.24328 106.16591 35268 ft 484 kts 89°
2026-04-23 16:24 56.23753 106.28656 35269 ft 485 kts 89°
2026-04-23 16:25 56.23166 106.40715 35268 ft 484 kts 89°
2026-04-23 16:25 56.22569 106.52733 35262 ft 483 kts 89°
2026-04-23 16:26 56.21963 106.64742 35270 ft 482 kts 89°
2026-04-23 16:26 56.21348 106.76734 35268 ft 481 kts 89°
2026-04-23 16:27 56.20737 106.88697 35271 ft 480 kts 89°
2026-04-23 16:27 56.20121 107.00619 35284 ft 480 kts 90°
2026-04-23 16:28 56.19503 107.12563 35294 ft 480 kts 90°
2026-04-23 16:28 56.18852 107.24514 35278 ft 481 kts 90°
2026-04-23 16:29 56.18167 107.36437 35295 ft 480 kts 90°
2026-04-23 16:29 56.17474 107.48366 35276 ft 480 kts 91°
2026-04-23 16:30 56.16775 107.60283 35259 ft 480 kts 91°
2026-04-23 16:30 56.16068 107.72177 35266 ft 479 kts 91°
2026-04-23 16:31 56.15350 107.84052 35245 ft 479 kts 91°
2026-04-23 16:31 56.14622 107.95896 35276 ft 478 kts 91°
2026-04-23 16:32 56.13881 108.07762 35247 ft 479 kts 91°
2026-04-23 16:32 56.13129 108.19619 35238 ft 478 kts 91°
2026-04-23 16:33 56.12367 108.31446 35230 ft 478 kts 92°
2026-04-23 16:33 56.11594 108.43278 35242 ft 477 kts 92°
2026-04-23 16:34 56.10809 108.55102 35260 ft 478 kts 92°
2026-04-23 16:34 56.10014 108.66924 35243 ft 478 kts 92°
2026-04-23 16:35 56.09210 108.78720 35256 ft 478 kts 92°
2026-04-23 16:35 56.08391 108.90537 35248 ft 478 kts 92°
2026-04-23 16:36 56.07563 109.02347 35246 ft 478 kts 92°
2026-04-23 16:36 56.06727 109.14143 35273 ft 478 kts 93°
2026-04-23 16:37 56.05880 109.25948 35260 ft 478 kts 93°
2026-04-23 16:37 56.05022 109.37724 35241 ft 478 kts 93°
2026-04-23 16:38 56.04152 109.49500 35237 ft 477 kts 94°
2026-04-23 16:38 56.03273 109.61257 35235 ft 476 kts 94°
2026-04-23 16:39 56.02378 109.73071 35246 ft 476 kts 94°
2026-04-23 16:39 56.01482 109.84777 35236 ft 476 kts 94°
2026-04-23 16:40 56.00573 109.96492 35230 ft 475 kts 94°
2026-04-23 16:40 55.99660 110.08194 35233 ft 475 kts 94°
2026-04-23 16:41 55.98745 110.19803 35239 ft 475 kts 94°
2026-04-23 16:41 55.97809 110.31534 35227 ft 475 kts 95°
2026-04-23 16:42 55.97026 110.41227 35221 ft 473 kts 95°
2026-04-23 16:42 55.96080 110.52825 35222 ft 472 kts 95°
2026-04-23 16:43 55.95125 110.64411 35213 ft 471 kts 95°
2026-04-23 16:43 55.94157 110.75973 35217 ft 471 kts 96°
2026-04-23 16:44 55.93168 110.87513 35210 ft 470 kts 96°
2026-04-23 16:44 55.92168 110.99044 35203 ft 470 kts 96°
2026-04-23 16:45 55.91162 111.10542 35190 ft 470 kts 96°
2026-04-23 16:45 55.90145 111.22044 35188 ft 469 kts 97°
2026-04-23 16:46 55.89121 111.33534 35186 ft 469 kts 97°
2026-04-23 16:46 55.88084 111.45011 35191 ft 469 kts 97°
2026-04-23 16:47 55.87038 111.56460 35184 ft 469 kts 97°
2026-04-23 16:47 55.85981 111.67927 35180 ft 469 kts 97°
2026-04-23 16:48 55.84914 111.79390 35168 ft 469 kts 97°
2026-04-23 16:48 55.83838 111.90832 35190 ft 469 kts 97°
2026-04-23 16:49 55.82753 112.02255 35189 ft 469 kts 98°
2026-04-23 16:49 55.81654 112.13702 35167 ft 470 kts 98°
2026-04-23 16:50 55.80544 112.25144 35170 ft 470 kts 98°
2026-04-23 16:50 55.79416 112.36655 35160 ft 469 kts 98°
2026-04-23 16:51 55.78289 112.48044 35165 ft 468 kts 98°
2026-04-23 16:51 55.77158 112.59361 35151 ft 468 kts 98°
2026-04-23 16:52 55.76009 112.70746 35161 ft 468 kts 98°
2026-04-23 16:52 55.74849 112.82130 35157 ft 468 kts 98°
2026-04-23 16:53 55.73672 112.93573 35149 ft 469 kts 98°
2026-04-23 16:53 55.72489 113.04957 35131 ft 469 kts 99°
2026-04-23 16:54 55.71296 113.16337 35128 ft 469 kts 99°
2026-04-23 16:54 55.70092 113.27708 35114 ft 469 kts 99°
2026-04-23 16:55 55.68881 113.39047 35108 ft 468 kts 99°
2026-04-23 16:55 55.67658 113.50378 35076 ft 468 kts 99°
2026-04-23 16:56 55.66429 113.61672 35083 ft 466 kts 100°
2026-04-23 16:56 55.65195 113.72915 35069 ft 464 kts 100°
2026-04-23 16:57 55.63957 113.84092 35069 ft 462 kts 100°
2026-04-23 16:57 55.62710 113.95242 35061 ft 461 kts 100°
2026-04-23 16:58 55.61458 114.06355 35060 ft 460 kts 101°
2026-04-23 16:58 55.60199 114.17425 35049 ft 459 kts 101°
2026-04-23 16:59 55.58930 114.28492 35046 ft 459 kts 101°
2026-04-23 16:59 55.57651 114.39549 35034 ft 459 kts 101°
2026-04-23 17:00 55.56363 114.50591 35037 ft 459 kts 101°
2026-04-23 17:00 55.55062 114.61651 35027 ft 460 kts 101°
2026-04-23 17:01 55.53749 114.72724 35028 ft 461 kts 102°
2026-04-23 17:01 55.52424 114.83805 35021 ft 461 kts 102°
2026-04-23 17:02 55.51087 114.94892 35012 ft 462 kts 102°
2026-04-23 17:02 55.49742 115.05959 35004 ft 462 kts 102°
2026-04-23 17:03 55.48384 115.17039 35002 ft 462 kts 102°
2026-04-23 17:03 55.47017 115.28110 34985 ft 462 kts 103°
2026-04-23 17:04 55.45641 115.39164 34989 ft 461 kts 103°
2026-04-23 17:04 55.44258 115.50179 34982 ft 461 kts 103°
2026-04-23 17:05 55.42866 115.61189 34981 ft 460 kts 103°
2026-04-23 17:05 55.41466 115.72173 34974 ft 459 kts 103°
2026-04-23 17:06 55.40059 115.83133 34976 ft 458 kts 103°
2026-04-23 17:06 55.38637 115.94114 34962 ft 458 kts 104°
2026-04-23 17:07 55.37216 116.05017 34968 ft 457 kts 104°
2026-04-23 17:07 55.35786 116.15898 34959 ft 456 kts 104°
2026-04-23 17:08 55.34354 116.26738 34961 ft 455 kts 104°
2026-04-23 17:08 55.32906 116.37562 34939 ft 455 kts 104°
2026-04-23 17:09 55.31435 116.48352 34940 ft 454 kts 104°
2026-04-23 17:09 55.29957 116.59112 34939 ft 453 kts 105°
2026-04-23 17:10 55.28478 116.69831 34943 ft 452 kts 105°
2026-04-23 17:10 55.26988 116.80553 34939 ft 452 kts 105°
2026-04-23 17:11 55.25491 116.91263 34931 ft 452 kts 105°
2026-04-23 17:11 55.23987 117.01953 34929 ft 451 kts 105°
2026-04-23 17:12 55.22478 117.12610 34929 ft 451 kts 105°
2026-04-23 17:12 55.20964 117.23273 34923 ft 451 kts 105°
2026-04-23 17:13 55.19442 117.33928 34921 ft 451 kts 105°
2026-04-23 17:13 55.17913 117.44570 34915 ft 451 kts 106°
2026-04-23 17:14 55.16377 117.55180 34916 ft 450 kts 106°
2026-04-23 17:14 55.14860 117.65807 34925 ft 450 kts 105°
2026-04-23 17:15 55.13360 117.76444 34922 ft 451 kts 105°
2026-04-23 17:15 55.11846 117.87080 34921 ft 451 kts 105°
2026-04-23 17:16 55.10311 117.97779 34922 ft 451 kts 106°
2026-04-23 17:16 55.08774 118.08303 34924 ft 451 kts 106°
2026-04-23 17:17 55.07172 118.18886 34921 ft 451 kts 107°
2026-04-23 17:17 55.05558 118.29454 34922 ft 451 kts 107°
2026-04-23 17:18 55.03393 118.43588 34922 ft 451 kts 107°
2026-04-23 17:19 55.01770 118.54127 34916 ft 451 kts 107°
2026-04-23 17:19 55.00136 118.64669 34922 ft 451 kts 107°
2026-04-23 17:20 54.98492 118.75205 34909 ft 451 kts 107°
2026-04-23 17:21 54.95181 118.96225 34922 ft 450 kts 107°
2026-04-23 17:21 54.92678 119.11947 34906 ft 449 kts 108°
2026-04-23 17:22 54.90161 119.27624 34899 ft 448 kts 108°
2026-04-23 17:23 54.87638 119.43205 34902 ft 446 kts 108°
2026-04-23 17:24 54.85108 119.58715 34894 ft 444 kts 109°
2026-04-23 17:24 54.82568 119.74146 34904 ft 443 kts 109°
2026-04-23 17:25 54.80002 119.89597 34904 ft 442 kts 109°
2026-04-23 17:26 54.76581 120.09989 34892 ft 441 kts 109°
2026-04-23 17:27 54.73977 120.25345 34901 ft 442 kts 110°
2026-04-23 17:27 54.72235 120.35547 34887 ft 442 kts 110°
2026-04-23 17:28 54.70486 120.45734 34881 ft 443 kts 110°
2026-04-23 17:28 54.68723 120.55940 34857 ft 443 kts 110°
2026-04-23 17:29 54.66952 120.66134 34873 ft 443 kts 110°
2026-04-23 17:30 54.64281 120.81402 34883 ft 443 kts 110°
2026-04-23 17:30 54.61593 120.96641 34880 ft 442 kts 110°
2026-04-23 17:31 54.59789 121.06795 34847 ft 443 kts 111°
2026-04-23 17:31 54.57980 121.16918 34860 ft 442 kts 111°
2026-04-23 17:32 54.56160 121.27047 34872 ft 442 kts 111°
2026-04-23 17:32 54.54332 121.37166 34871 ft 442 kts 111°
2026-04-23 17:33 54.52496 121.47274 34864 ft 442 kts 111°
2026-04-23 17:33 54.50655 121.57353 34842 ft 442 kts 111°
2026-04-23 17:34 54.48804 121.67437 34867 ft 442 kts 112°
2026-04-23 17:35 54.46011 121.82545 34878 ft 442 kts 112°
2026-04-23 17:35 54.43185 121.97716 34868 ft 441 kts 112°
2026-04-23 17:36 54.41307 122.07724 34836 ft 440 kts 112°
2026-04-23 17:36 54.39160 122.17510 34871 ft 437 kts 116°
2026-04-23 17:37 54.36846 122.27147 34880 ft 436 kts 116°
2026-04-23 17:38 54.33390 122.41581 34884 ft 436 kts 116°
2026-04-23 17:38 54.31103 122.51206 34893 ft 436 kts 116°
2026-04-23 17:39 54.28815 122.60822 34892 ft 435 kts 116°
2026-04-23 17:39 54.26525 122.70406 34884 ft 436 kts 116°
2026-04-23 17:40 54.24221 122.80003 34892 ft 436 kts 116°
2026-04-23 17:40 54.21908 122.89594 34907 ft 436 kts 116°
2026-04-23 17:41 54.19587 122.99175 34905 ft 436 kts 117°
2026-04-23 17:41 54.16095 123.13510 34917 ft 436 kts 117°
2026-04-23 17:42 54.12575 123.27867 34915 ft 437 kts 117°
2026-04-23 17:43 54.10219 123.37426 34900 ft 437 kts 117°
2026-04-23 17:43 54.07859 123.46958 34903 ft 437 kts 117°
2026-04-23 17:44 54.05490 123.56485 34902 ft 436 kts 117°
2026-04-23 17:44 54.01931 123.70722 34914 ft 436 kts 117°
2026-04-23 17:45 53.98341 123.84988 34917 ft 436 kts 117°
2026-04-23 17:46 53.94762 123.99122 34893 ft 435 kts 117°
2026-04-23 17:46 53.92351 124.08596 34918 ft 435 kts 117°
2026-04-23 17:47 53.89949 124.17997 34925 ft 434 kts 117°
2026-04-23 17:48 53.86343 124.32035 34937 ft 433 kts 117°
2026-04-23 17:48 53.83932 124.41373 34935 ft 433 kts 117°
2026-04-23 17:49 53.81521 124.50677 34936 ft 432 kts 117°
2026-04-23 17:49 53.79104 124.59971 34958 ft 431 kts 117°
2026-04-23 17:50 53.76681 124.69249 34953 ft 431 kts 117°
2026-04-23 17:50 53.73034 124.83143 34969 ft 431 kts 118°
2026-04-23 17:51 53.70592 124.92400 34946 ft 431 kts 118°
2026-04-23 17:52 53.66918 125.06255 34981 ft 432 kts 118°
2026-04-23 17:52 53.63617 125.18632 34989 ft 433 kts 118°
2026-04-23 17:53 53.59890 125.32528 34990 ft 435 kts 118°
2026-04-23 17:54 53.57393 125.41790 34995 ft 435 kts 118°
2026-04-23 17:54 53.53620 125.55718 35013 ft 436 kts 118°
2026-04-23 17:55 53.49827 125.69646 35011 ft 437 kts 118°
2026-04-23 17:56 53.47244 125.78897 35013 ft 436 kts 122°
2026-04-23 17:56 53.41875 125.90978 35027 ft 430 kts 132°
2026-04-23 17:57 53.38138 125.98831 35019 ft 431 kts 132°
2026-04-23 17:58 53.32563 126.10648 35032 ft 431 kts 131°
2026-04-23 17:58 53.28823 126.18585 35015 ft 431 kts 131°
2026-04-23 17:59 53.25111 126.26439 35033 ft 431 kts 132°
2026-04-23 17:59 53.21386 126.34293 35052 ft 431 kts 132°
2026-04-23 18:00 53.17676 126.42089 35049 ft 432 kts 132°
2026-04-23 18:00 53.13932 126.49933 35052 ft 432 kts 132°
2026-04-23 18:01 53.10180 126.57770 35040 ft 433 kts 132°
2026-04-23 18:01 53.06400 126.65642 35054 ft 434 kts 132°
2026-04-23 18:02 53.02625 126.73476 35061 ft 434 kts 132°
2026-04-23 18:02 52.98837 126.81316 35064 ft 436 kts 132°
2026-04-23 18:03 52.95042 126.89145 35058 ft 436 kts 132°
2026-04-23 18:03 52.91231 126.96983 35067 ft 437 kts 132°
2026-04-23 18:04 52.87412 127.04816 35076 ft 437 kts 132°
2026-04-23 18:04 52.83585 127.12640 35073 ft 437 kts 132°
2026-04-23 18:05 52.79752 127.20455 35077 ft 437 kts 132°
2026-04-23 18:05 52.75924 127.28246 35078 ft 437 kts 132°
2026-04-23 18:06 52.72086 127.36035 35085 ft 437 kts 132°
2026-04-23 18:06 52.68244 127.43807 35080 ft 437 kts 132°
2026-04-23 18:07 52.64386 127.51530 35074 ft 436 kts 133°
2026-04-23 18:07 52.60525 127.59202 35077 ft 435 kts 133°
2026-04-23 18:08 52.57283 127.65630 35078 ft 435 kts 132°
2026-04-23 18:08 52.52794 127.74512 35083 ft 435 kts 132°
2026-04-23 18:09 52.48923 127.82151 35083 ft 435 kts 132°
2026-04-23 18:09 52.45050 127.89770 35090 ft 436 kts 132°
2026-04-23 18:10 52.41160 127.97401 35068 ft 437 kts 133°
2026-04-23 18:10 52.37258 128.05030 35090 ft 437 kts 133°
2026-04-23 18:11 52.33351 128.12647 35093 ft 438 kts 133°
2026-04-23 18:11 52.29424 128.20281 35096 ft 439 kts 133°
2026-04-23 18:12 52.25483 128.27916 35088 ft 440 kts 133°
2026-04-23 18:12 52.21533 128.35548 35082 ft 440 kts 132°
2026-04-23 18:13 52.17577 128.43169 35088 ft 440 kts 132°
2026-04-23 18:13 52.13593 128.50820 35091 ft 441 kts 133°
2026-04-23 18:14 52.09647 128.58374 35093 ft 441 kts 133°
2026-04-23 18:14 52.05671 128.65965 35083 ft 441 kts 132°
2026-04-23 18:15 52.01674 128.73572 35096 ft 440 kts 132°
2026-04-23 18:15 51.97695 128.81120 35099 ft 440 kts 133°
2026-04-23 18:16 51.93715 128.88649 35104 ft 439 kts 133°
2026-04-23 18:16 51.89733 128.96160 35103 ft 439 kts 133°
2026-04-23 18:17 51.83762 129.07380 35113 ft 438 kts 133°
2026-04-23 18:17 51.79777 129.14841 35109 ft 438 kts 133°
2026-04-23 18:18 51.75796 129.22273 35104 ft 438 kts 133°
2026-04-23 18:18 51.71804 129.29703 35109 ft 438 kts 133°
2026-04-23 18:19 51.67806 129.37121 35117 ft 438 kts 133°
2026-04-23 18:19 51.63801 129.44532 35121 ft 439 kts 133°
2026-04-23 18:20 51.59792 129.51929 35132 ft 439 kts 133°
2026-04-23 18:20 51.55764 129.59339 35127 ft 440 kts 133°
2026-04-23 18:21 51.51724 129.66748 35121 ft 441 kts 132°
2026-04-23 18:21 51.47671 129.74161 35132 ft 442 kts 132°
2026-04-23 18:22 51.43604 129.81578 35140 ft 443 kts 133°
2026-04-23 18:22 51.39528 129.88991 35145 ft 444 kts 133°
2026-04-23 18:23 51.33353 130.00182 35133 ft 446 kts 132°
2026-04-23 18:24 51.27102 130.11162 35143 ft 448 kts 134°
2026-04-23 18:25 51.20774 130.22145 35151 ft 449 kts 134°
2026-04-23 18:25 51.16548 130.29479 35146 ft 449 kts 133°
2026-04-23 18:26 51.12292 130.36850 35160 ft 450 kts 133°
2026-04-23 18:26 51.08769 130.42937 35162 ft 450 kts 134°
2026-04-23 18:27 51.04515 130.50266 35162 ft 451 kts 134°
2026-04-23 18:27 51.00251 130.57590 35166 ft 451 kts 134°
2026-04-23 18:28 50.95980 130.64905 35170 ft 452 kts 134°
2026-04-23 18:28 50.91710 130.72197 35168 ft 452 kts 134°
2026-04-23 18:29 50.87430 130.79487 35171 ft 451 kts 134°
2026-04-23 18:29 50.83148 130.86760 35163 ft 451 kts 134°
2026-04-23 18:30 50.78861 130.94012 35160 ft 451 kts 134°
2026-04-23 18:30 50.74569 131.01249 35177 ft 451 kts 134°
2026-04-23 18:31 50.70278 131.08469 35169 ft 452 kts 134°
2026-04-23 18:31 50.65971 131.15697 35174 ft 452 kts 134°
2026-04-23 18:32 50.61652 131.22923 35168 ft 453 kts 133°
2026-04-23 18:32 50.57316 131.30157 35179 ft 455 kts 134°
2026-04-23 18:33 50.52942 131.37435 35183 ft 456 kts 134°
2026-04-23 18:33 50.48573 131.44682 35183 ft 457 kts 134°
2026-04-23 18:34 50.44190 131.51933 35183 ft 458 kts 133°
2026-04-23 18:34 50.39793 131.59185 35184 ft 459 kts 133°
2026-04-23 18:35 50.35393 131.66423 35187 ft 459 kts 134°
2026-04-23 18:35 50.30980 131.73661 35190 ft 459 kts 134°
2026-04-23 18:36 50.26563 131.80886 35189 ft 459 kts 133°
2026-04-23 18:36 50.22152 131.88083 35196 ft 459 kts 133°
2026-04-23 18:37 50.17730 131.95270 35185 ft 459 kts 134°
2026-04-23 18:37 50.13301 132.02436 35199 ft 459 kts 134°
2026-04-23 18:38 50.08866 132.09597 35199 ft 459 kts 134°
2026-04-23 18:38 50.04433 132.16747 35196 ft 460 kts 132°
2026-04-23 18:39 50.00692 132.24775 35214 ft 459 kts 121°
2026-04-23 18:39 49.97368 132.33257 35200 ft 460 kts 120°
2026-04-23 18:40 49.94009 132.41771 35209 ft 460 kts 120°
2026-04-23 18:40 49.90625 132.50210 35202 ft 461 kts 121°
2026-04-23 18:41 49.87220 132.58630 35200 ft 461 kts 121°
2026-04-23 18:41 49.83806 132.67036 35202 ft 461 kts 121°
2026-04-23 18:42 49.80389 132.75427 35211 ft 460 kts 121°
2026-04-23 18:42 49.76973 132.83791 35204 ft 460 kts 121°
2026-04-23 18:43 49.73547 132.92155 35199 ft 460 kts 121°
2026-04-23 18:43 49.70118 133.00499 35195 ft 459 kts 121°
2026-04-23 18:44 49.66689 133.08816 35205 ft 458 kts 121°
2026-04-23 18:44 49.63264 133.17097 35211 ft 458 kts 121°
2026-04-23 18:45 49.59832 133.25370 35188 ft 457 kts 121°
2026-04-23 18:45 49.56402 133.33615 35201 ft 456 kts 121°
2026-04-23 18:46 49.52972 133.41831 35206 ft 455 kts 121°
2026-04-23 18:46 49.49546 133.50016 35194 ft 455 kts 121°
2026-04-23 18:47 49.46112 133.58196 35193 ft 455 kts 121°
2026-04-23 18:47 49.42673 133.66360 35191 ft 455 kts 121°
2026-04-23 18:48 49.39238 133.74514 35193 ft 454 kts 121°
2026-04-23 18:48 49.35779 133.82718 35196 ft 455 kts 121°
2026-04-23 18:49 49.32341 133.90852 35189 ft 455 kts 121°
2026-04-23 18:49 49.28887 133.98995 35188 ft 456 kts 121°
2026-04-23 18:50 49.26013 134.05753 35192 ft 456 kts 121°
2026-04-23 18:50 49.21959 134.15254 35196 ft 457 kts 121°
2026-04-23 18:51 49.18477 134.23389 35187 ft 457 kts 121°
2026-04-23 18:51 49.14987 134.31518 35183 ft 457 kts 121°
2026-04-23 18:52 49.11491 134.39640 35183 ft 458 kts 121°
2026-04-23 18:52 49.07846 134.47593 35182 ft 460 kts 129°
2026-04-23 18:53 49.03154 134.54294 35179 ft 463 kts 136°
2026-04-23 18:53 48.98332 134.60810 35172 ft 463 kts 136°
2026-04-23 18:54 48.93562 134.67408 35173 ft 463 kts 135°
2026-04-23 18:54 48.88805 134.74000 35179 ft 463 kts 135°
2026-04-23 18:55 48.84031 134.80593 35162 ft 464 kts 135°
2026-04-23 18:55 48.79252 134.87175 35170 ft 464 kts 135°
2026-04-23 18:56 48.75246 134.92680 35164 ft 464 kts 135°
2026-04-23 18:56 48.69677 135.00314 35184 ft 465 kts 135°
2026-04-23 18:57 48.64870 135.06885 35179 ft 466 kts 136°
2026-04-23 18:57 48.60054 135.13451 35188 ft 466 kts 136°
2026-04-23 18:58 48.54820 135.19198 35185 ft 470 kts 158°
2026-04-23 18:58 48.51663 135.20462 35183 ft 472 kts 173°
2026-04-23 18:58 48.48382 135.20469 35173 ft 471 kts 186°
2026-04-23 18:59 48.41820 135.19465 35158 ft 472 kts 186°
2026-04-23 18:59 48.35277 135.18481 35132 ft 473 kts 186°
2026-04-23 19:00 48.28761 135.17598 35152 ft 473 kts 186°
2026-04-23 19:00 48.23266 135.16884 35179 ft 474 kts 186°
2026-04-23 19:01 48.16691 135.16033 35170 ft 474 kts 186°
2026-04-23 19:01 48.10105 135.15179 35165 ft 475 kts 186°
2026-04-23 19:02 48.03523 135.14325 35153 ft 475 kts 186°
2026-04-23 19:02 47.96929 135.13472 35167 ft 476 kts 186°
2026-04-23 19:03 47.90331 135.12616 35188 ft 476 kts 186°
2026-04-23 19:03 47.83726 135.11754 35175 ft 477 kts 186°
2026-04-23 19:04 47.77125 135.10901 35155 ft 477 kts 186°
2026-04-23 19:04 47.70513 135.10055 35169 ft 477 kts 186°
2026-04-23 19:05 47.63899 135.09211 35175 ft 477 kts 186°
2026-04-23 19:05 47.57282 135.08367 35185 ft 477 kts 186°
2026-04-23 19:06 47.50623 135.07520 35154 ft 478 kts 186°
2026-04-23 19:06 47.43995 135.06679 35167 ft 478 kts 186°
2026-04-23 19:07 47.37367 135.05840 35178 ft 478 kts 186°
2026-04-23 19:07 47.30750 135.05005 35178 ft 478 kts 186°
2026-04-23 19:08 47.24117 135.04169 35158 ft 479 kts 186°
2026-04-23 19:08 47.17480 135.03336 35171 ft 478 kts 187°
2026-04-23 19:09 47.10845 135.02504 35182 ft 478 kts 187°
2026-04-23 19:09 47.04207 135.01674 35174 ft 479 kts 187°
2026-04-23 19:10 46.97580 135.00848 35173 ft 478 kts 187°
2026-04-23 19:10 46.90943 135.00022 35179 ft 478 kts 187°
2026-04-23 19:11 46.84304 134.99198 35171 ft 479 kts 187°
2026-04-23 19:11 46.77667 134.98350 35178 ft 478 kts 187°
2026-04-23 19:12 46.72159 134.97597 35174 ft 479 kts 187°
2026-04-23 19:12 46.64404 134.96530 35176 ft 478 kts 188°
2026-04-23 19:13 46.57763 134.95626 35193 ft 481 kts 187°
2026-04-23 19:13 46.54421 134.95174 35323 ft 484 kts 187°
2026-04-23 19:13 46.51070 134.94722 35600 ft 483 kts 188°
2026-04-23 19:13 46.47735 134.94275 35947 ft 480 kts 188°
2026-04-23 19:14 46.44423 134.93831 36194 ft 479 kts 188°
2026-04-23 19:14 46.37759 134.92936 36174 ft 480 kts 188°
2026-04-23 19:15 46.31134 134.92050 36168 ft 476 kts 188°
2026-04-23 19:15 46.24558 134.91172 36179 ft 473 kts 188°
2026-04-23 19:16 46.18002 134.90297 36174 ft 472 kts 188°
2026-04-23 19:16 46.11476 134.89429 36175 ft 471 kts 188°
2026-04-23 19:17 46.01691 134.88131 36189 ft 472 kts 189°
2026-04-23 19:17 45.95133 134.87264 36187 ft 474 kts 189°
2026-04-23 19:18 45.88747 134.85292 36176 ft 466 kts 206°
2026-04-23 19:18 45.83041 134.81073 36189 ft 461 kts 215°
2026-04-23 19:19 45.74691 134.74166 36185 ft 463 kts 215°
2026-04-23 19:20 45.66260 134.67333 36191 ft 465 kts 214°
2026-04-23 19:20 45.60625 134.62808 36181 ft 465 kts 214°
2026-04-23 19:21 45.52194 134.56059 36179 ft 464 kts 214°
2026-04-23 19:22 45.46576 134.51574 36182 ft 462 kts 214°
2026-04-23 19:22 45.38171 134.44878 36179 ft 461 kts 214°
2026-04-23 19:23 45.32579 134.40437 36186 ft 460 kts 214°
2026-04-23 19:24 45.24227 134.33823 36178 ft 457 kts 215°
2026-04-23 19:24 45.15935 134.27277 36183 ft 457 kts 215°
2026-04-23 19:25 45.04843 134.18556 36170 ft 455 kts 215°
2026-04-23 19:26 44.96546 134.12057 36170 ft 454 kts 215°
2026-04-23 19:27 44.82747 134.01290 36175 ft 452 kts 216°
2026-04-23 19:28 44.71920 133.92439 36179 ft 452 kts 217°
2026-04-23 19:29 44.63743 133.85737 35516 ft 458 kts 217°
2026-04-23 19:30 44.58234 133.81255 34404 ft 456 kts 216°
2026-04-23 19:30 44.55500 133.79040 33872 ft 453 kts 217°
2026-04-23 19:30 44.50084 133.74659 32913 ft 445 kts 217°
2026-04-23 19:31 44.47410 133.72498 32459 ft 441 kts 217°
2026-04-23 19:31 44.44769 133.70364 32002 ft 437 kts 217°
2026-04-23 19:31 44.42149 133.68248 31578 ft 434 kts 217°
2026-04-23 19:31 44.39576 133.66172 31157 ft 430 kts 218°
2026-04-23 19:32 44.36960 133.64062 30711 ft 427 kts 218°
2026-04-23 19:32 44.34396 133.61997 30265 ft 424 kts 218°
2026-04-23 19:32 44.31876 133.59971 29782 ft 421 kts 218°
2026-04-23 19:32 44.29353 133.57943 29323 ft 417 kts 218°
2026-04-23 19:33 44.26854 133.55938 28895 ft 413 kts 218°
2026-04-23 19:33 44.24369 133.53945 28429 ft 410 kts 218°
2026-04-23 19:33 44.19467 133.50019 27558 ft 403 kts 218°
2026-04-23 19:34 44.17049 133.48085 27081 ft 400 kts 218°
2026-04-23 19:34 44.14652 133.46170 26713 ft 396 kts 218°
2026-04-23 19:34 44.09904 133.42380 25874 ft 391 kts 218°
2026-04-23 19:35 44.07554 133.40507 25460 ft 389 kts 218°
2026-04-23 19:35 44.05207 133.38637 25049 ft 387 kts 218°
2026-04-23 19:35 44.02877 133.36782 24629 ft 386 kts 218°
2026-04-23 19:35 44.00551 133.34933 24192 ft 385 kts 218°
2026-04-23 19:36 43.98223 133.33083 23735 ft 384 kts 218°
2026-04-23 19:36 43.95914 133.31252 23293 ft 381 kts 218°
2026-04-23 19:36 43.93645 133.29455 22870 ft 378 kts 218°
2026-04-23 19:36 43.91371 133.27657 22480 ft 375 kts 218°
2026-04-23 19:37 43.89237 133.25691 22083 ft 362 kts 229°
2026-04-23 19:37 43.87451 133.23301 21555 ft 353 kts 238°
2026-04-23 19:37 43.86028 133.20597 21134 ft 344 kts 244°
2026-04-23 19:37 43.84698 133.17855 20725 ft 342 kts 245°
2026-04-23 19:38 43.83376 133.15121 20334 ft 340 kts 245°
2026-04-23 19:38 43.82063 133.12418 19945 ft 337 kts 244°
2026-04-23 19:38 43.80755 133.09735 19573 ft 335 kts 244°
2026-04-23 19:38 43.79456 133.07080 19206 ft 332 kts 244°
2026-04-23 19:39 43.78162 133.04444 18841 ft 331 kts 244°
2026-04-23 19:39 43.76870 133.01813 18473 ft 329 kts 244°
2026-04-23 19:39 43.75586 132.99205 18050 ft 328 kts 244°
2026-04-23 19:39 43.74308 132.96610 17664 ft 326 kts 244°
2026-04-23 19:40 43.73032 132.94024 17279 ft 323 kts 244°
2026-04-23 19:40 43.71774 132.91478 16940 ft 319 kts 244°
2026-04-23 19:40 43.70543 132.88984 16575 ft 316 kts 244°
2026-04-23 19:40 43.69309 132.86489 16221 ft 313 kts 244°
2026-04-23 19:41 43.68088 132.84022 15882 ft 311 kts 244°
2026-04-23 19:41 43.66868 132.81561 15523 ft 309 kts 244°
2026-04-23 19:41 43.65757 132.79068 15166 ft 300 kts 254°
2026-04-23 19:41 43.65060 132.76403 14828 ft 294 kts 259°
2026-04-23 19:42 43.64440 132.73718 14480 ft 292 kts 260°
2026-04-23 19:42 43.63830 132.71049 14135 ft 291 kts 260°
2026-04-23 19:42 43.63215 132.68382 13775 ft 291 kts 260°
2026-04-23 19:42 43.62597 132.65736 13396 ft 290 kts 259°
2026-04-23 19:43 43.61976 132.63103 13041 ft 288 kts 259°
2026-04-23 19:43 43.61354 132.60487 12728 ft 286 kts 259°
2026-04-23 19:43 43.60734 132.57893 12378 ft 284 kts 259°
2026-04-23 19:43 43.60115 132.55313 12018 ft 283 kts 258°
2026-04-23 19:44 43.59497 132.52748 11719 ft 280 kts 258°
2026-04-23 19:44 43.58885 132.50208 11381 ft 279 kts 258°
2026-04-23 19:44 43.58282 132.47708 11058 ft 277 kts 258°
2026-04-23 19:44 43.57671 132.45177 10745 ft 281 kts 257°
2026-04-23 19:45 43.57052 132.42615 10551 ft 281 kts 257°
2026-04-23 19:45 43.56431 132.40052 10407 ft 280 kts 257°
2026-04-23 19:45 43.55820 132.37549 10290 ft 271 kts 257°
2026-04-23 19:45 43.55229 132.35127 10166 ft 262 kts 257°
2026-04-23 19:46 43.54652 132.32759 9869 ft 260 kts 257°
2026-04-23 19:46 43.54081 132.30412 9577 ft 257 kts 257°
2026-04-23 19:46 43.53515 132.28090 9225 ft 257 kts 257°
2026-04-23 19:46 43.52949 132.25764 8903 ft 257 kts 257°
2026-04-23 19:47 43.52564 132.24186 8716 ft 257 kts 256°
2026-04-23 19:47 43.51801 132.21060 8303 ft 257 kts 256°
2026-04-23 19:47 43.51232 132.18734 8048 ft 256 kts 256°
2026-04-23 19:47 43.50664 132.16416 7755 ft 255 kts 256°
2026-04-23 19:48 43.50288 132.14882 7579 ft 254 kts 256°
2026-04-23 19:48 43.49533 132.11813 7228 ft 252 kts 256°
2026-04-23 19:48 43.49160 132.10299 7043 ft 251 kts 255°
2026-04-23 19:48 43.48480 132.08069 6778 ft 256 kts 246°
2026-04-23 19:49 43.47314 132.05211 6434 ft 261 kts 243°
2026-04-23 19:49 43.46402 132.03035 6154 ft 263 kts 243°
2026-04-23 19:49 43.45498 132.00856 5867 ft 261 kts 243°
2026-04-23 19:49 43.44609 131.98683 5579 ft 259 kts 243°
2026-04-23 19:50 43.44017 131.97226 5417 ft 258 kts 243°
2026-04-23 19:50 43.43143 131.95066 5149 ft 258 kts 243°
2026-04-23 19:50 43.42274 131.92914 4877 ft 257 kts 243°
2026-04-23 19:50 43.41411 131.90779 4742 ft 251 kts 243°
2026-04-23 19:51 43.40430 131.88854 4638 ft 245 kts 222°
2026-04-23 19:51 43.38923 131.87863 4461 ft 240 kts 189°
2026-04-23 19:51 43.37312 131.88012 4333 ft 226 kts 163°
2026-04-23 19:51 43.35915 131.88844 4213 ft 212 kts 149°
2026-04-23 19:52 43.34669 131.89804 4127 ft 200 kts 148°
2026-04-23 19:52 43.33475 131.90736 3869 ft 196 kts 148°
2026-04-23 19:52 43.32333 131.91736 3563 ft 193 kts 131°
2026-04-23 19:52 43.31839 131.93298 3340 ft 179 kts 80°
2026-04-23 19:53 43.32134 131.94987 3110 ft 187 kts 72°
2026-04-23 19:53 43.32522 131.96655 2854 ft 181 kts 65°
2026-04-23 19:53 43.32998 131.98217 2620 ft 174 kts 63°
2026-04-23 19:53 43.33528 131.99672 2374 ft 167 kts 60°
2026-04-23 19:54 43.34069 132.01040 2134 ft 158 kts 59°
2026-04-23 19:54 43.34576 132.02301 1954 ft 142 kts 59°
2026-04-23 19:54 43.35036 132.03442 1744 ft 134 kts 58°
2026-04-23 19:54 43.35488 132.04560 1545 ft 136 kts 59°
2026-04-23 19:55 43.35955 132.05716 1370 ft 140 kts 59°
2026-04-23 19:55 43.36426 132.06882 1159 ft 140 kts 59°
2026-04-23 19:55 43.36901 132.08059 949 ft 143 kts 59°
2026-04-23 19:55 43.37385 132.09258 739 ft 144 kts 59°
2026-04-23 19:56 43.37873 132.10468 537 ft 145 kts 60°
2026-04-23 19:56 43.38363 132.11681 325 ft 145 kts 61°
2026-04-23 19:56 43.38849 132.12889 132 ft 143 kts 60°
2026-04-23 19:56 43.39321 132.14059 68 ft 134 kts 58°
2026-04-23 19:57 43.39704 132.14994 66 ft 91 kts 61°
2026-04-23 19:57 43.39939 132.15573 60 ft 48 kts 61°
2026-04-23 19:57 43.40038 132.15819 65 ft 21 kts 61°
2026-04-23 19:57 43.40130 132.16048 66 ft 36 kts 60°
2026-04-23 19:58 43.40251 132.16347 67 ft 35 kts 61°
2026-04-23 19:58 43.40364 132.16626 63 ft 27 kts 61°
2026-04-23 19:58 43.40426 132.16781 65 ft 14 kts 60°
2026-04-23 19:58 43.40396 132.16882 65 ft 14 kts 152°
2026-04-23 19:59 43.40308 132.16945 63 ft 14 kts 152°
2026-04-23 19:59 43.40223 132.17006 60 ft 13 kts 153°
2026-04-23 19:59 43.40142 132.17065 65 ft 13 kts 152°
2026-04-23 19:59 43.40062 132.17067 65 ft 13 kts 225°
2026-04-23 20:00 43.40011 132.16947 62 ft 15 kts 241°
2026-04-23 20:00 43.39960 132.16821 62 ft 15 kts 241°
2026-04-23 20:00 43.39911 132.16699 61 ft 14 kts 241°
2026-04-23 20:00 43.39864 132.16583 67 ft 14 kts 241°
2026-04-23 20:01 43.39820 132.16471 63 ft 13 kts 241°
2026-04-23 20:01 43.39773 132.16369 68 ft 11 kts 210°
2026-04-23 20:01 43.39706 132.16407 68 ft 9 kts 151°
2026-04-23 20:01 43.39690 132.16419 65 ft 0 kts 152°